| time (UTC) | temp F | wind direction | speed MPH | gust MPH | rain 1hr in | rain 24hr in | rain mn in | humidity % | barometer mb |
| 20260905153042 | 77 | 102 | 0.0 | 4.0 | 0.00 | 0.00 | 0.00 | 72 | 1011.9 |
| 20260905151546 | 74 | 128 | 0.0 | 5.0 | 0.00 | 0.00 | 0.00 | 75 | 1011.9 |
| 20260905150038 | 74 | 230 | 1.0 | 4.0 | 0.00 | 0.00 | 0.00 | 75 | 1011.9 |
| 20260905144536 | 73 | 81 | 0.0 | 4.0 | 0.00 | 0.00 | 0.00 | 76 | 1011.8 |
| 20260905143045 | 73 | 135 | 0.0 | 3.0 | 0.00 | 0.00 | 0.00 | 78 | 1011.9 |
| 20260905141532 | 71 | 360 | 0.0 | 2.0 | 0.00 | 0.00 | 0.00 | 83 | 1011.5 |
| 20260905140032 | 69 | 360 | 1.0 | 3.0 | 0.00 | 0.00 | 0.00 | 86 | 1011.6 |
| 20260905134534 | 69 | 10 | 2.0 | 5.0 | 0.00 | 0.00 | 0.00 | 87 | 1011.7 |
| 20260905133026 | 68 | 360 | 1.0 | 4.0 | 0.00 | 0.00 | 0.00 | 87 | 1011.9 |
| 20260905131527 | 68 | 360 | 1.0 | 3.0 | 0.00 | 0.00 | 0.00 | 88 | 1012.1 |
| 20260905130022 | 67 | 360 | 1.0 | 4.0 | 0.00 | 0.00 | 0.00 | 88 | 1011.9 |
| 20260905124532 | 67 | 360 | 0.0 | 4.0 | 0.00 | 0.00 | 0.00 | 88 | 1011.8 |
| 20260905123014 | 67 | 360 | 0.0 | 4.0 | 0.00 | 0.00 | 0.00 | 88 | 1011.9 |
| 20260905121517 | 67 | 360 | 0.0 | 4.0 | 0.00 | 0.00 | 0.00 | 88 | 1012.0 |
| 20260905120010 | 67 | 360 | 1.0 | 4.0 | 0.00 | 0.00 | 0.00 | 88 | 1011.9 |
| 20260905114509 | 67 | 360 | 2.0 | 4.0 | 0.00 | 0.00 | 0.00 | 88 | 1011.8 |
| 20260905113005 | 67 | 360 | 2.0 | 5.0 | 0.00 | 0.00 | 0.00 | 87 | 1011.6 |
| 20260905111507 | 68 | 360 | 2.0 | 4.0 | 0.00 | 0.00 | 0.00 | 88 | 1011.4 |
| 20260905110003 | 68 | 360 | 0.0 | 4.0 | 0.00 | 0.00 | 0.00 | 87 | 1011.5 |
| 20260905104503 | 68 | 360 | 0.0 | 4.0 | 0.00 | 0.00 | 0.00 | 87 | 1011.4 |
| 20260905103101 | 68 | 360 | 0.0 | 3.0 | 0.00 | 0.00 | 0.00 | 87 | 1011.2 |
| 20260905101609 | 68 | 360 | 1.0 | 4.0 | 0.00 | 0.00 | 0.00 | 87 | 1011.1 |
| 20260905100100 | 68 | 360 | 0.0 | 1.0 | 0.00 | 0.00 | 0.00 | 87 | 1010.7 |
| 20260905094559 | 68 | 360 | 0.0 | 2.0 | 0.00 | 0.00 | 0.00 | 87 | 1010.4 |
| 20260905093116 | 68 | 360 | 1.0 | 3.0 | 0.00 | 0.00 | 0.00 | 86 | 1010.7 |
| 20260905091604 | 69 | 360 | 0.0 | 2.0 | 0.00 | 0.00 | 0.00 | 86 | 1010.5 |
| 20260905090055 | 69 | 360 | 0.0 | 3.0 | 0.00 | 0.00 | 0.00 | 85 | 1010.4 |
| 20260905084554 | 69 | 360 | 0.0 | 3.0 | 0.00 | 0.01 | 0.00 | 85 | 1010.4 |
| 20260905083051 | 70 | 360 | 1.0 | 3.0 | 0.00 | 0.01 | 0.00 | 85 | 1010.9 |
| 20260905081552 | 70 | 360 | 0.0 | 2.0 | 0.00 | 0.01 | 0.00 | 84 | 1011.1 |
| 20260905080055 | 70 | 360 | 0.0 | 2.0 | 0.00 | 0.01 | 0.00 | 84 | 1010.8 |
| 20260905074547 | 70 | 360 | 0.0 | 0.0 | 0.00 | 0.01 | 0.00 | 83 | 1010.7 |
| 20260905073046 | 71 | 360 | 0.0 | 1.0 | 0.00 | 0.01 | 0.00 | 83 | 1010.7 |
| 20260905071544 | 71 | 360 | 0.0 | 3.0 | 0.00 | 0.01 | 0.00 | 83 | 1011.0 |
| 20260905070049 | 71 | 360 | 1.0 | 3.0 | 0.00 | 0.01 | 0.00 | 83 | 1011.2 |
| 20260905064544 | 71 | 360 | 1.0 | 3.0 | 0.00 | 0.01 | 0.00 | 83 | 1011.6 |
| 20260905063042 | 71 | 360 | 0.0 | 4.0 | 0.00 | 0.01 | 0.00 | 83 | 1012.0 |
| 20260905061538 | 71 | 360 | 0.0 | 3.0 | 0.00 | 0.01 | 0.00 | 83 | 1011.8 |
| 20260905060037 | 71 | 360 | 0.0 | 3.0 | 0.00 | 0.01 | 0.00 | 83 | 1011.9 |
| 20260905054547 | 72 | 360 | 0.0 | 3.0 | 0.00 | 0.38 | 0.00 | 83 | 1012.3 |
| 20260905053035 | 72 | 360 | 0.0 | 4.0 | 0.00 | 0.38 | 0.00 | 83 | 1012.4 |
| 20260905051534 | 72 | 360 | 0.0 | 2.0 | 0.00 | 0.38 | 0.00 | 82 | 1012.4 |
| 20260905050033 | 71 | 360 | 0.0 | 3.0 | 0.00 | 0.38 | 0.00 | 82 | 1012.6 |
| 20260905044532 | 71 | 360 | 0.0 | 1.0 | 0.00 | 0.38 | 0.00 | 82 | 1012.6 |
| 20260905043030 | 72 | 360 | 0.0 | 0.0 | 0.00 | 0.38 | 0.00 | 81 | 1012.5 |
| 20260905041529 | 72 | 360 | 0.0 | 2.0 | 0.00 | 0.38 | 0.00 | 81 | 1012.1 |
| 20260905040033 | 72 | 360 | 0.0 | 3.0 | 0.00 | 0.38 | 0.00 | 81 | 1012.2 |
| 20260905034531 | 72 | 360 | 1.0 | 4.0 | 0.00 | 0.38 | 0.38 | 80 | 1012.3 |
| 20260905033030 | 72 | 360 | 1.0 | 3.0 | 0.00 | 0.38 | 0.38 | 80 | 1012.3 |
| 20260905031529 | 72 | 360 | 1.0 | 4.0 | 0.00 | 0.38 | 0.38 | 80 | 1012.2 |
| 20260905030025 | 72 | 360 | 1.0 | 3.0 | 0.00 | 0.38 | 0.38 | 80 | 1012.1 |
| 20260905024524 | 73 | 360 | 1.0 | 4.0 | 0.00 | 0.38 | 0.38 | 79 | 1012.3 |
| 20260905023023 | 73 | 360 | 2.0 | 4.0 | 0.00 | 0.38 | 0.38 | 78 | 1012.2 |
| 20260905021523 | 73 | 360 | 1.0 | 4.0 | 0.00 | 0.38 | 0.38 | 78 | 1012.2 |
| 20260905020026 | 73 | 360 | 1.0 | 4.0 | 0.00 | 0.38 | 0.38 | 77 | 1012.3 |
| 20260905014522 | 74 | 360 | 1.0 | 4.0 | 0.00 | 0.38 | 0.38 | 77 | 1012.4 |
| 20260905013021 | 74 | 360 | 2.0 | 4.0 | 0.00 | 0.38 | 0.38 | 77 | 1012.3 |
| 20260905011521 | 74 | 360 | 1.0 | 4.0 | 0.00 | 0.38 | 0.38 | 76 | 1012.0 |
| 20260905010021 | 74 | 360 | 1.0 | 4.0 | 0.00 | 0.38 | 0.38 | 77 | 1012.0 |
| 20260905004521 | 74 | 360 | 1.0 | 4.0 | 0.00 | 0.78 | 0.38 | 78 | 1012.1 |
| 20260905003019 | 74 | 360 | 1.0 | 4.0 | 0.00 | 0.78 | 0.38 | 78 | 1012.1 |
| 20260905001518 | 75 | 360 | 1.0 | 3.0 | 0.00 | 0.78 | 0.38 | 78 | 1012.1 |
| 20260905000017 | 75 | 360 | 2.0 | 5.0 | 0.00 | 0.78 | 0.38 | 77 | 1012.1 |
| 20260904234521 | 76 | 360 | 0.0 | 4.0 | 0.00 | 1.51 | 0.38 | 76 | 1012.0 |
| 20260904233017 | 76 | 360 | 2.0 | 4.0 | 0.00 | 1.51 | 0.38 | 75 | 1012.0 |
| 20260904231516 | 77 | 360 | 1.0 | 4.0 | 0.00 | 1.51 | 0.38 | 74 | 1012.1 |
| 20260904230029 | 77 | 360 | 2.0 | 4.0 | 0.00 | 1.51 | 0.38 | 74 | 1011.9 |
| 20260904224522 | 78 | 360 | 1.0 | 3.0 | 0.00 | 2.24 | 0.38 | 73 | 1011.7 |
| 20260904223013 | 79 | 360 | 1.0 | 4.0 | 0.00 | 2.24 | 0.38 | 72 | 1011.7 |
| 20260904221521 | 79 | 227 | 4.0 | 6.0 | 0.00 | 2.24 | 0.38 | 70 | 1011.5 |
| 20260904220114 | 80 | 265 | 1.0 | 6.0 | 0.00 | 2.24 | 0.38 | 70 | 1011.5 |
| 20260904214518 | 79 | 263 | 1.0 | 7.0 | 0.00 | 2.24 | 0.38 | 70 | 1011.6 |
| 20260904213015 | 79 | 288 | 2.0 | 8.0 | 0.00 | 2.24 | 0.38 | 69 | 1011.7 |
| 20260904211512 | 80 | 236 | 4.0 | 8.0 | 0.00 | 2.24 | 0.38 | 69 | 1011.5 |
| 20260904210011 | 79 | 311 | 2.0 | 4.0 | 0.00 | 2.24 | 0.38 | 70 | 1011.6 |
| 20260904204512 | 80 | 265 | 2.0 | 7.0 | 0.00 | 2.24 | 0.38 | 70 | 1011.8 |
| 20260904203008 | 81 | 265 | 0.0 | 3.0 | 0.00 | 2.24 | 0.38 | 70 | 1012.4 |
| 20260904201506 | 80 | 248 | 1.0 | 3.0 | 0.00 | 2.24 | 0.38 | 72 | 1012.6 |
| 20260904200009 | 79 | 147 | 1.0 | 5.0 | 0.00 | 2.24 | 0.38 | 72 | 1011.9 |
| 20260904194504 | 79 | 326 | 1.0 | 4.0 | 0.00 | 2.24 | 0.38 | 73 | 1012.2 |
| 20260904193007 | 80 | 304 | 0.0 | 3.0 | 0.00 | 2.24 | 0.38 | 72 | 1012.9 |
| 20260904191501 | 80 | 332 | 5.0 | 9.0 | 0.00 | 2.24 | 0.38 | 72 | 1013.5 |
| 20260904184601 | 79 | 314 | 2.0 | 10.0 | 0.00 | 2.24 | 0.38 | 75 | 1013.5 |
| 20260904183114 | 79 | 319 | 2.0 | 6.0 | 0.00 | 2.24 | 0.38 | 76 | 1013.5 |
| 20260904181557 | 79 | 265 | 4.0 | 9.0 | 0.00 | 2.24 | 0.38 | 75 | 1013.5 |
| 20260904180057 | 80 | 298 | 2.0 | 7.0 | 0.00 | 2.24 | 0.38 | 75 | 1013.4 |
| 20260904174555 | 79 | 319 | 2.0 | 5.0 | 0.00 | 2.24 | 0.38 | 73 | 1013.3 |
| 20260904173053 | 77 | 26 | 0.0 | 5.0 | 0.00 | 2.24 | 0.38 | 78 | 1013.7 |
| 20260904171550 | 76 | 54 | 2.0 | 5.0 | 0.00 | 2.24 | 0.38 | 80 | 1013.9 |
| 20260904170049 | 75 | 360 | 3.0 | 5.0 | 0.00 | 2.24 | 0.38 | 81 | 1014.0 |
| 20260904164549 | 74 | 360 | 1.0 | 5.0 | 0.00 | 2.24 | 0.38 | 83 | 1014.4 |
| 20260904163053 | 74 | 360 | 2.0 | 5.0 | 0.00 | 2.24 | 0.38 | 83 | 1014.3 |
| 20260904161547 | 74 | 360 | 0.0 | 4.0 | 0.00 | 2.24 | 0.38 | 83 | 1014.6 |
| 20260904160100 | 74 | 360 | 1.0 | 4.0 | 0.00 | 2.24 | 0.38 | 82 | 1014.8 |
| 20260904154548 | 75 | 360 | 3.0 | 8.0 | 0.00 | 2.24 | 0.38 | 82 | 1015.3 |